GW6089 Weather Reports


time (UTC)temp
F
wind
direction
speed
knots
gust
knots
rain 1hr
in
rain 24hr
in
rain mn
in
humidity
%
barometer
mb
20260505080906 72 120 0.9 5.2 0.00 0.01 0.00 81 1014.3
20260505080806 72 119 0.9 5.2 0.00 0.01 0.00 81 1014.0
20260505080606 72 118 1.7 5.2 0.00 0.01 0.00 81 1014.1
20260505080506 72 121 0.9 3.5 0.00 0.01 0.00 81 1013.8
20260505080420 72 122 1.7 3.5 0.00 0.01 0.00 81 1014.1
20260505080406 72 123 1.7 3.5 0.00 0.01 0.00 81 1014.1
20260505080306 72 124 1.7 3.5 0.00 0.01 0.00 81 1013.9
20260505080106 72 126 0.9 6.1 0.00 0.01 0.00 81 1014.0
20260505080006 72 126 0.9 6.1 0.00 0.01 0.00 81 1014.1
20260505075906 72 126 0.9 6.1 0.00 0.01 0.00 81 1014.0
20260505075806 72 125 0.9 6.1 0.00 0.01 0.00 81 1014.0
20260505075706 72 123 0.9 6.1 0.00 0.01 0.00 81 1014.1
20260505075606 72 122 0.9 6.1 0.00 0.01 0.00 81 1014.2
20260505075505 72 118 0.9 6.1 0.00 0.01 0.00 81 1014.0
20260505075405 72 118 0.9 6.1 0.00 0.01 0.00 81 1014.0
20260505075318 72 116 0.9 6.1 0.00 0.01 0.00 81 1013.8
20260505075305 72 117 0.9 6.1 0.00 0.01 0.00 81 1013.8
20260505075205 72 123 0.9 6.1 0.00 0.01 0.00 81 1013.7
20260505075120 72 119 0.9 6.1 0.00 0.01 0.00 81 1014.2
20260505075006 72 117 0.9 3.5 0.00 0.01 0.00 81 1014.3
20260505074921 72 119 0.9 3.5 0.00 0.01 0.00 81 1014.1
20260505074820 72 120 0.9 3.5 0.00 0.01 0.00 81 1014.1
20260505074805 72 122 0.9 3.5 0.00 0.01 0.00 81 1014.1
20260505074506 73 131 0.9 3.5 0.00 0.01 0.00 81 1014.0
20260505074404 73 131 0.9 3.5 0.00 0.01 0.00 81 1014.0
20260505074306 73 130 0.9 3.5 0.00 0.01 0.00 81 1014.0
20260505074205 73 125 0.9 3.5 0.00 0.01 0.00 81 1013.7
20260505074105 73 127 0.9 3.5 0.00 0.01 0.00 81 1013.6
20260505074005 73 130 0.9 3.5 0.00 0.01 0.00 81 1013.6
20260505073905 73 128 0.9 2.6 0.00 0.01 0.00 81 1013.9
20260505073805 73 136 0.9 2.6 0.00 0.01 0.00 81 1013.8
20260505073705 73 134 0.9 2.6 0.00 0.01 0.00 81 1013.8
20260505073619 73 144 0.9 2.6 0.00 0.01 0.00 81 1013.9
20260505073605 73 147 0.9 2.6 0.00 0.01 0.00 80 1013.9
20260505073519 73 152 0.9 2.6 0.00 0.01 0.00 80 1013.9
20260505073505 73 154 0.9 2.6 0.00 0.01 0.00 80 1013.9
20260505073205 73 169 0.9 2.6 0.00 0.01 0.00 80 1013.8
20260505073105 73 173 0.9 2.6 0.00 0.01 0.00 80 1013.6
20260505073005 73 174 0.9 2.6 0.00 0.01 0.00 80 1013.7
20260505072904 73 179 0.9 2.6 0.00 0.01 0.00 80 1013.7
20260505072806 73 174 0.9 2.6 0.00 0.01 0.00 80 1013.7
20260505072706 73 172 0.9 2.6 0.00 0.01 0.00 80 1013.8
20260505072605 74 159 0.0 2.6 0.00 0.01 0.00 80 1013.7
20260505072505 74 147 0.0 1.7 0.00 0.01 0.00 80 1013.5
20260505072405 74 139 0.0 0.9 0.00 0.01 0.00 80 1013.4
20260505072305 74 139 0.0 0.9 0.00 0.01 0.00 80 1013.6
20260505072204 74 138 0.0 1.7 0.00 0.01 0.00 80 1013.4
20260505072106 74 138 0.0 1.7 0.00 0.01 0.00 80 1013.4
20260505072007 74 134 0.0 1.7 0.00 0.01 0.00 80 1013.4
20260505071906 74 134 0.0 1.7 0.00 0.01 0.00 80 1013.2
20260505071819 74 135 0.0 1.7 0.00 0.01 0.00 80 1013.2
20260505071805 74 134 0.0 1.7 0.00 0.01 0.00 80 1013.2
20260505071706 74 135 0.0 1.7 0.00 0.01 0.00 79 1013.4
20260505071506 74 135 0.0 1.7 0.00 0.01 0.00 79 1013.3
20260505071406 74 136 0.0 1.7 0.00 0.01 0.00 79 1013.2
20260505071307 74 137 0.0 1.7 0.00 0.01 0.00 79 1013.1
20260505071221 74 137 0.0 1.7 0.00 0.01 0.00 79 1013.2
20260505071106 74 137 0.0 1.7 0.00 0.01 0.00 79 1013.3
20260505070806 74 138 0.9 1.7 0.00 0.01 0.00 79 1012.9
20260505070706 74 136 0.9 1.7 0.00 0.01 0.00 79 1012.8
20260505070605 74 135 0.9 1.7 0.00 0.01 0.00 79 1013.1
20260505070506 74 133 0.9 1.7 0.00 0.01 0.00 79 1012.9
20260505070406 75 131 0.9 1.7 0.00 0.01 0.00 79 1012.9
20260505070306 75 129 0.9 1.7 0.00 0.01 0.00 79 1012.9
20260505070206 75 128 0.9 1.7 0.00 0.01 0.00 79 1013.2
20260505070120 75 127 0.9 1.7 0.00 0.01 0.00 79 1013.0
20260505070106 75 126 0.9 1.7 0.00 0.01 0.00 79 1013.0
20260505070006 75 124 0.9 1.7 0.00 0.01 0.00 79 1013.2
20260505065806 75 119 0.0 1.7 0.00 0.01 0.00 79 1013.1
20260505065706 75 119 0.9 1.7 0.00 0.01 0.00 79 1013.1
20260505065606 75 119 0.9 1.7 0.00 0.01 0.00 79 1013.2
20260505065519 75 119 0.9 1.7 0.00 0.01 0.00 78 1013.2
20260505065504 75 119 0.9 1.7 0.00 0.01 0.00 78 1013.0
20260505065405 75 119 0.9 1.7 0.00 0.01 0.00 78 1013.0
20260505065320 75 119 0.9 1.7 0.00 0.01 0.00 78 1012.9
20260505065206 75 119 0.9 1.7 0.00 0.01 0.00 78 1012.9
20260505065119 75 119 0.9 1.7 0.00 0.01 0.00 78 1013.0
20260505065006 76 118 0.9 1.7 0.00 0.01 0.00 78 1013.0
20260505064805 76 118 0.9 1.7 0.00 0.01 0.00 78 1013.0
20260505064706 76 118 0.9 1.7 0.00 0.01 0.00 78 1013.0
20260505064505 76 118 0.9 1.7 0.00 0.01 0.00 78 1012.9
20260505064405 76 119 0.9 1.7 0.00 0.01 0.00 78 1012.9
20260505064307 76 121 0.9 2.6 0.00 0.01 0.00 78 1012.8
20260505064106 76 117 0.9 2.6 0.00 0.01 0.00 78 1012.7
20260505064005 76 116 0.9 2.6 0.00 0.01 0.00 78 1012.8
20260505063906 76 118 0.9 2.6 0.00 0.01 0.00 78 1012.9
20260505063806 76 119 0.9 2.6 0.00 0.01 0.00 78 1013.1
20260505063706 76 118 0.9 2.6 0.00 0.01 0.00 78 1013.1
20260505063604 76 118 0.9 2.6 0.00 0.01 0.00 78 1013.1
20260505063507 76 117 0.9 2.6 0.00 0.01 0.00 78 1012.8
20260505063406 76 116 0.9 2.6 0.00 0.01 0.00 77 1012.9
20260505063306 76 116 0.9 2.6 0.00 0.01 0.00 77 1012.8
20260505063206 76 118 0.9 2.6 0.00 0.01 0.00 77 1012.9
20260505063106 76 119 0.9 2.6 0.00 0.01 0.00 77 1013.0
20260505063006 76 120 0.9 2.6 0.00 0.01 0.00 77 1012.9
20260505062906 76 119 0.9 2.6 0.00 0.01 0.00 77 1012.8
20260505062806 76 118 0.9 2.6 0.00 0.01 0.00 77 1012.9
20260505062705 76 121 0.9 2.6 0.00 0.01 0.00 77 1013.0
20260505062606 76 123 0.9 2.6 0.00 0.01 0.00 77 1012.9
20260505062507 76 126 0.9 2.6 0.00 0.01 0.00 77 1012.9
20260505062406 76 129 0.9 2.6 0.00 0.01 0.00 77 1012.7
20260505062306 76 130 0.9 2.6 0.00 0.01 0.00 77 1012.7
20260505062221 76 130 0.9 2.6 0.00 0.01 0.00 77 1013.0
20260505062206 76 131 0.9 2.6 0.00 0.01 0.00 77 1013.0
20260505062106 76 132 0.9 2.6 0.00 0.01 0.00 77 1012.7
20260505062020 77 133 0.9 2.6 0.00 0.01 0.00 77 1012.7
20260505061904 76 138 0.0 2.6 0.00 0.01 0.00 77 1012.7
20260505061706 77 139 0.0 1.7 0.00 0.01 0.00 76 1012.7
20260505061605 77 139 0.0 1.7 0.00 0.01 0.00 76 1012.6
20260505061521 77 139 0.0 1.7 0.00 0.01 0.00 76 1012.8
20260505061505 77 139 0.0 1.7 0.00 0.01 0.00 76 1012.8
20260505061404 77 139 0.0 0.9 0.00 0.01 0.00 76 1012.7
20260505061221 77 139 0.0 0.9 0.00 0.01 0.00 76 1012.8
20260505061206 77 139 0.0 0.9 0.00 0.01 0.00 76 1012.8
20260505061106 77 139 0.0 0.9 0.00 0.01 0.00 76 1012.4
20260505060906 77 139 0.0 0.9 0.00 0.01 0.00 76 1012.7
20260505060806 77 139 0.0 0.9 0.00 0.01 0.00 76 1012.5
20260505060722 77 139 0.0 0.9 0.00 0.01 0.00 76 1012.5
20260505060706 77 139 0.0 0.9 0.00 0.01 0.00 76 1012.5
20260505060606 77 139 0.0 0.9 0.00 0.01 0.00 76 1012.6
20260505060405 77 139 0.0 0.9 0.00 0.01 0.00 76 1012.6
20260505060306 77 139 0.0 0.9 0.00 0.01 0.00 76 1012.6
20260505060204 77 139 0.0 0.9 0.00 0.01 0.00 76 1012.5
20260505060106 77 139 0.0 0.9 0.00 0.01 0.00 76 1012.4
20260505060020 77 139 0.0 0.9 0.00 0.01 0.00 76 1012.5
20260505060006 77 139 0.0 0.9 0.00 0.01 0.00 76 1012.5
20260505055906 77 139 0.0 0.9 0.00 0.01 0.00 76 1012.4
20260505055706 77 139 0.0 0.9 0.00 0.01 0.00 76 1012.5
20260505055604 77 139 0.0 1.7 0.00 0.01 0.00 76 1012.6
20260505055505 77 139 0.0 1.7 0.00 0.01 0.00 76 1012.6
20260505055404 77 139 0.0 1.7 0.00 0.01 0.00 76 1012.4
20260505055306 77 139 0.0 1.7 0.00 0.01 0.00 76 1012.4
20260505055206 77 139 0.0 1.7 0.00 0.01 0.00 76 1012.5
20260505055105 77 139 0.0 1.7 0.00 0.01 0.00 76 1012.4
20260505055005 77 139 0.0 1.7 0.00 0.01 0.00 76 1012.2
20260505054905 77 139 0.0 1.7 0.00 0.01 0.00 76 1012.4
20260505054805 77 139 0.0 1.7 0.00 0.01 0.00 76 1012.2
20260505054706 77 139 0.0 1.7 0.00 0.01 0.00 76 1012.1
20260505054606 77 139 0.0 0.9 0.00 0.01 0.00 76 1012.1
20260505054505 77 139 0.0 0.9 0.00 0.01 0.00 76 1012.2
20260505054421 77 139 0.0 0.9 0.00 0.01 0.00 76 1012.2
20260505054304 77 139 0.0 0.9 0.00 0.01 0.00 76 1012.3
20260505054106 77 139 0.0 0.9 0.00 0.01 0.00 76 1012.4
20260505054004 77 139 0.0 0.9 0.00 0.01 0.00 76 1012.4
20260505053906 77 139 0.0 0.9 0.00 0.01 0.00 76 1012.4
20260505053806 77 139 0.0 0.9 0.00 0.01 0.00 77 1012.3
20260505053706 77 139 0.0 0.9 0.00 0.01 0.00 77 1012.2
20260505053606 77 139 0.0 1.7 0.00 0.01 0.00 76 1012.3
20260505053521 78 139 0.0 1.7 0.00 0.01 0.00 76 1012.2
20260505053506 78 139 0.0 1.7 0.00 0.01 0.00 76 1012.2
20260505053406 77 139 0.0 1.7 0.00 0.01 0.00 76 1012.2
20260505053206 78 139 0.9 1.7 0.00 0.01 0.00 76 1012.1
20260505053104 78 139 0.9 1.7 0.00 0.01 0.00 76 1012.1
20260505052918 78 139 0.9 1.7 0.00 0.01 0.00 77 1012.2
20260505052906 78 139 0.9 1.7 0.00 0.01 0.00 77 1012.2
20260505052805 78 140 0.0 1.7 0.00 0.01 0.00 77 1012.2
20260505052721 78 140 0.0 1.7 0.00 0.01 0.00 77 1012.0
20260505052620 78 139 0.0 1.7 0.00 0.01 0.00 77 1012.3
20260505052606 78 139 0.0 1.7 0.00 0.01 0.00 77 1012.3
20260505052304 78 143 0.0 1.7 0.00 0.01 0.00 77 1012.2
20260505052206 78 149 0.0 1.7 0.00 0.01 0.00 77 1012.2
20260505052106 78 143 0.0 1.7 0.00 0.01 0.00 77 1012.1
20260505052006 78 134 0.0 1.7 0.00 0.01 0.00 77 1011.9
20260505051906 78 126 0.0 1.7 0.00 0.01 0.00 77 1012.1
20260505051806 78 123 0.9 1.7 0.00 0.01 0.00 77 1012.3
20260505051706 78 122 0.9 1.7 0.00 0.01 0.00 77 1012.2
20260505051606 78 121 0.9 1.7 0.00 0.01 0.00 77 1012.2
20260505051506 78 121 0.9 1.7 0.00 0.01 0.00 77 1012.1
20260505051419 78 121 0.9 1.7 0.00 0.01 0.00 77 1012.0
20260505051306 78 115 0.9 2.6 0.00 0.01 0.00 77 1012.0
20260505051220 78 107 0.9 2.6 0.00 0.01 0.00 77 1012.0
20260505051105 78 105 0.9 2.6 0.00 0.01 0.00 77 1011.9
20260505050805 78 109 0.9 2.6 0.00 0.01 0.00 77 1012.4
20260505050706 78 110 0.9 2.6 0.00 0.01 0.00 77 1012.0
20260505050406 78 113 0.9 2.6 0.00 0.01 0.00 77 1012.1
20260505050305 78 115 0.9 2.6 0.00 0.01 0.00 77 1012.1
20260505050206 78 121 0.9 2.6 0.00 0.01 0.00 77 1012.1
20260505050106 78 125 0.9 2.6 0.00 0.01 0.00 78 1012.2
20260505041706 78 215 0.9 3.5 0.00 0.01 0.00 79 1011.9
20260505041506 78 219 0.9 3.5 0.00 0.01 0.00 79 1012.0
20260505041406 78 223 0.9 3.5 0.00 0.01 0.00 79 1011.9
20260505041206 78 239 0.9 3.5 0.00 0.01 0.00 79 1012.1
20260505041105 78 244 0.9 3.5 0.00 0.01 0.00 79 1012.1
20260505041005 78 249 1.7 3.5 0.00 0.01 0.00 79 1012.0
20260505040920 78 252 1.7 3.5 0.00 0.01 0.00 79 1012.0
20260505040905 78 253 1.7 3.5 0.00 0.01 0.00 79 1012.0
20260505040804 78 257 1.7 3.5 0.00 0.01 0.00 80 1012.2
20260505040719 78 262 1.7 3.5 0.00 0.01 0.00 80 1012.0
20260505040605 78 262 0.9 3.5 0.00 0.01 0.00 80 1012.1
20260505040421 78 263 1.7 3.5 0.00 0.01 0.00 80 1012.1
20260505040405 78 263 1.7 3.5 0.00 0.01 0.00 80 1012.1
20260505040304 78 265 0.9 3.5 0.00 0.01 0.00 80 1012.2
20260505040106 78 285 0.9 3.5 0.00 0.01 0.00 81 1012.2
20260505040006 78 56 0.9 3.5 0.00 0.01 0.00 81 1011.8
20260505035904 78 73 0.9 1.7 0.00 0.01 0.00 81 1012.3
20260505035806 78 76 0.9 1.7 0.00 0.01 0.00 81 1012.3
20260505035706 78 75 0.9 2.6 0.00 0.01 0.00 81 1012.2
20260505035606 78 76 0.9 2.6 0.00 0.01 0.00 81 1012.0
20260505035505 78 76 1.7 2.6 0.00 0.01 0.00 81 1012.0
20260505035405 78 75 1.7 2.6 0.00 0.01 0.00 81 1012.1
20260505035305 78 75 1.7 2.6 0.00 0.01 0.00 81 1012.0
20260505035106 78 73 1.7 2.6 0.00 0.01 0.00 81 1011.9
20260505035006 78 73 1.7 2.6 0.00 0.01 0.00 81 1012.3
20260505034905 78 72 1.7 2.6 0.00 0.01 0.00 81 1012.0
20260505034807 78 70 1.7 3.5 0.00 0.01 0.00 81 1011.8
20260505034718 78 69 1.7 3.5 0.00 0.01 0.00 82 1011.9
20260505034705 78 68 1.7 3.5 0.00 0.01 0.00 82 1011.9
20260505034606 78 65 1.7 5.2 0.00 0.01 0.00 82 1011.9
20260505034520 78 64 1.7 5.2 0.00 0.01 0.00 81 1012.0
20260505034406 77 63 0.9 5.2 0.00 0.01 0.00 82 1012.0
20260505034220 77 65 1.7 5.2 0.00 0.01 0.00 82 1012.3
20260505034205 77 65 1.7 5.2 0.00 0.01 0.00 82 1012.3
20260505034106 77 66 1.7 5.2 0.00 0.01 0.00 82 1012.1
20260505033906 77 61 1.7 5.2 0.00 0.01 0.00 82 1012.1
20260505033805 77 57 1.7 5.2 0.00 0.01 0.00 82 1011.8
20260505033706 77 54 1.7 5.2 0.00 0.01 0.00 82 1012.1
20260505033606 77 51 0.9 2.6 0.00 0.01 0.00 82 1011.9
20260505033505 77 45 0.9 1.7 0.00 0.01 0.00 82 1012.0
20260505033406 77 42 1.7 1.7 0.00 0.01 0.00 82 1012.0
20260505033306 77 37 0.9 1.7 0.00 0.01 0.00 82 1011.9
20260505033206 77 32 0.9 1.7 0.00 0.01 0.00 82 1012.0
20260505033106 77 27 0.9 1.7 0.00 0.01 0.00 82 1012.0
20260505033006 77 25 0.9 1.7 0.00 0.01 0.00 82 1012.1
20260505032906 77 25 0.9 1.7 0.00 0.01 0.00 82 1011.9
20260505032806 77 25 0.9 1.7 0.00 0.01 0.00 82 1012.0
20260505032706 77 25 0.9 1.7 0.00 0.01 0.00 82 1012.1
20260505032604 77 25 0.9 2.6 0.00 0.01 0.00 83 1012.2
20260505032506 77 25 0.9 2.6 0.00 0.01 0.00 83 1012.0
20260505032406 77 25 0.9 2.6 0.00 0.01 0.00 83 1012.1
20260505032306 77 25 0.9 2.6 0.00 0.01 0.00 83 1012.4
20260505032205 77 25 0.9 2.6 0.00 0.01 0.00 83 1012.3
20260505032106 77 24 0.9 2.6 0.00 0.01 0.00 83 1012.4
20260505032005 77 24 0.9 2.6 0.00 0.01 0.00 83 1012.2
20260505031919 77 24 0.0 2.6 0.00 0.01 0.00 83 1012.3
20260505031820 77 24 0.0 2.6 0.00 0.01 0.00 83 1012.1
20260505031805 77 24 0.0 2.6 0.00 0.01 0.00 84 1012.1
20260505031505 77 24 0.0 0.9 0.00 0.01 0.00 83 1012.2
20260505031405 77 24 0.0 0.9 0.00 0.01 0.00 83 1012.2
20260505031305 77 24 0.0 0.9 0.00 0.01 0.00 83 1012.0
20260505031206 77 25 0.0 1.7 0.00 0.01 0.00 83 1012.2
20260505031106 77 25 0.0 1.7 0.00 0.01 0.00 83 1012.2
20260505031006 77 25 0.0 1.7 0.00 0.01 0.00 83 1012.3
20260505030905 77 25 0.0 1.7 0.00 0.01 0.00 83 1012.1
20260505030805 77 25 0.0 1.7 0.00 0.01 0.00 84 1012.1
20260505030706 77 25 0.0 1.7 0.00 0.01 0.00 83 1011.9
20260505030604 77 25 0.9 1.7 0.00 0.01 0.00 83 1012.2
20260505030506 77 25 0.9 1.7 0.00 0.01 0.00 83 1012.2
20260505030406 77 26 0.9 1.7 0.00 0.01 0.00 84 1012.5
20260505030306 77 30 0.9 1.7 0.00 0.01 0.00 84 1012.2
20260505030206 77 38 0.9 1.7 0.00 0.01 0.00 84 1012.3
20260505030120 77 43 0.9 1.7 0.00 0.01 0.00 84 1012.3
20260505030105 77 45 0.9 1.7 0.00 0.01 0.00 84 1012.3
20260505030006 77 49 0.9 1.7 0.00 0.01 0.00 84 1012.5
20260505025806 76 60 0.9 1.7 0.00 0.01 0.00 84 1012.5
20260505025720 76 65 1.7 1.7 0.00 0.01 0.00 84 1012.5
20260505025706 76 66 0.9 1.7 0.00 0.01 0.00 84 1012.5
20260505025606 76 71 1.7 1.7 0.00 0.01 0.00 84 1012.5
20260505025406 76 83 0.9 1.7 0.00 0.01 0.00 84 1012.5
20260505025305 76 84 0.9 1.7 0.00 0.01 0.00 84 1012.7
20260505025206 76 85 0.9 1.7 0.00 0.01 0.00 84 1012.3
20260505025105 76 85 0.9 2.6 0.00 0.01 0.00 84 1012.5
20260505025006 76 85 0.9 2.6 0.00 0.01 0.00 85 1012.6
20260505024905 76 85 0.9 2.6 0.00 0.01 0.00 85 1012.6
20260505024805 76 85 0.9 2.6 0.00 0.01 0.00 85 1012.3
20260505024705 76 85 0.9 3.5 0.00 0.01 0.00 85 1012.5
20260505024506 76 82 0.9 3.5 0.00 0.01 0.00 85 1012.7
20260505024406 76 79 0.9 3.5 0.00 0.01 0.00 84 1012.5
20260505024306 76 76 0.9 3.5 0.00 0.01 0.00 84 1012.5
20260505024105 76 65 1.7 3.5 0.00 0.01 0.00 84 1012.6
20260505024005 76 56 1.7 3.5 0.00 0.01 0.00 84 1012.5
20260505023905 76 48 1.7 3.5 0.00 0.01 0.00 84 1012.4
20260505023805 76 43 0.9 3.5 0.00 0.01 0.00 85 1012.6
20260505023705 76 36 0.9 3.5 0.00 0.01 0.00 85 1012.7
20260505023605 76 24 0.9 1.7 0.00 0.01 0.00 85 1012.6
20260505023505 76 17 0.9 1.7 0.00 0.01 0.00 85 1012.6
20260505023405 76 17 0.9 1.7 0.00 0.01 0.00 85 1012.5
20260505023318 75 17 0.9 1.7 0.00 0.01 0.00 85 1012.7
20260505023305 75 17 0.9 1.7 0.00 0.01 0.00 85 1012.7
20260505023205 75 17 0.9 1.7 0.00 0.01 0.00 85 1012.8
20260505023005 75 12 0.9 2.6 0.00 0.01 0.00 85 1012.7
20260505022905 75 5 0.9 2.6 0.00 0.01 0.00 85 1012.7
20260505022805 75 14 0.9 2.6 0.00 0.01 0.00 85 1012.8
20260505022705 75 19 0.9 2.6 0.00 0.01 0.00 85 1012.9
20260505022606 75 19 0.9 2.6 0.00 0.01 0.00 85 1012.9
20260505022506 75 20 0.9 2.6 0.00 0.01 0.00 85 1012.9
20260505022420 75 23 0.9 2.6 0.00 0.01 0.00 85 1012.9
20260505022406 75 25 0.9 2.6 0.00 0.01 0.00 85 1012.9
20260505022305 75 26 0.9 2.6 0.00 0.01 0.00 86 1012.8
20260505022105 75 33 0.9 2.6 0.00 0.01 0.00 86 1013.0
20260505022005 75 54 0.0 1.7 0.00 0.01 0.00 86 1012.9
20260505021906 75 57 0.0 1.7 0.00 0.01 0.00 86 1013.0
20260505021806 75 35 0.0 2.6 0.00 0.01 0.00 86 1012.9
20260505021720 75 15 0.0 2.6 0.00 0.01 0.00 86 1012.9
20260505021706 75 16 0.0 2.6 0.00 0.01 0.00 86 1012.9
20260505021606 75 24 0.9 2.6 0.00 0.01 0.00 86 1012.9
20260505021406 75 359 0.9 2.6 0.00 0.01 0.00 86 1013.1
20260505021306 75 344 0.9 2.6 0.00 0.01 0.00 86 1012.8
20260505021206 75 329 0.9 2.6 0.00 0.01 0.00 86 1013.1
20260505021105 75 323 0.9 2.6 0.00 0.01 0.00 87 1012.8
20260505021004 75 317 0.9 2.6 0.00 0.01 0.00 87 1012.9
20260505020906 75 306 0.9 2.6 0.00 0.01 0.00 87 1012.9
20260505020806 75 300 0.9 2.6 0.00 0.01 0.00 87 1013.0
20260505020706 75 287 0.9 2.6 0.00 0.01 0.00 87 1013.1
20260505020606 75 288 0.9 2.6 0.00 0.01 0.00 87 1013.2
20260505020506 75 289 0.9 2.6 0.00 0.01 0.00 87 1013.1
20260505020404 75 290 0.9 2.6 0.00 0.01 0.00 87 1012.9
20260505020106 74 323 0.9 1.7 0.00 0.01 0.00 87 1013.1
20260505020006 74 336 0.9 1.7 0.00 0.01 0.00 87 1013.3
20260505015906 74 1 0.9 1.7 0.00 0.01 0.00 87 1013.0
20260505015806 74 352 0.9 1.7 0.00 0.01 0.00 87 1013.4
20260505015706 74 353 0.9 1.7 0.00 0.01 0.00 87 1013.1
20260505015606 74 7 0.9 1.7 0.00 0.01 0.00 87 1013.2
20260505015504 74 337 0.9 1.7 0.00 0.01 0.00 87 1013.2
20260505015405 74 319 0.9 1.7 0.00 0.01 0.00 87 1013.2
20260505015304 74 320 0.9 1.7 0.00 0.01 0.00 87 1013.2
20260505015204 74 317 0.9 1.7 0.00 0.01 0.00 87 1013.1
20260505015105 74 323 0.9 2.6 0.00 0.01 0.00 87 1013.2
20260505015006 74 318 0.9 3.5 0.00 0.01 0.00 87 1013.2
20260505014907 74 313 0.9 3.5 0.00 0.01 0.00 87 1013.3
20260505014819 74 310 0.9 3.5 0.00 0.01 0.00 87 1013.2
20260505014806 74 311 0.9 3.5 0.00 0.01 0.00 87 1013.2
20260505014705 74 303 0.9 3.5 0.00 0.01 0.00 87 1013.4
20260505014620 74 296 1.7 3.5 0.00 0.01 0.00 87 1013.4
20260505014505 74 293 1.7 3.5 0.00 0.01 0.00 87 1013.4
20260505014420 74 296 1.7 3.5 0.00 0.01 0.00 87 1013.6
20260505014305 74 292 1.7 5.2 0.00 0.01 0.00 87 1013.5
20260505014221 74 289 1.7 5.2 0.00 0.01 0.00 87 1013.6
20260505014106 74 283 1.7 5.2 0.00 0.01 0.00 87 1013.7
20260505013906 74 280 1.7 5.2 0.00 0.01 0.00 87 1013.7
20260505013806 74 279 1.7 5.2 0.00 0.01 0.00 87 1013.6
20260505013706 74 280 1.7 5.2 0.00 0.01 0.00 87 1013.7
20260505013606 74 282 1.7 5.2 0.00 0.01 0.00 88 1013.6
20260505013505 74 279 1.7 5.2 0.00 0.01 0.00 88 1013.8
20260505013405 74 274 1.7 5.2 0.00 0.01 0.00 88 1013.7
20260505013305 74 269 1.7 5.2 0.00 0.01 0.00 88 1013.7
20260505013205 74 266 0.9 3.5 0.00 0.01 0.00 88 1013.7
20260505013119 74 264 0.9 3.5 0.00 0.01 0.00 88 1013.7
20260505013105 74 263 0.9 3.5 0.00 0.01 0.00 88 1013.7
20260505013005 74 264 0.9 3.5 0.00 0.01 0.00 88 1013.7
20260505012806 74 262 0.9 3.5 0.00 0.01 0.00 88 1013.7
20260505012704 74 262 0.9 2.6 0.00 0.01 0.00 88 1013.8
20260505012606 74 265 0.9 2.6 0.00 0.01 0.00 88 1013.8
20260505012506 74 269 0.9 2.6 0.00 0.01 0.00 88 1013.9
20260505012419 74 273 0.9 3.5 0.00 0.01 0.00 88 1014.0
20260505012404 74 274 0.9 3.5 0.00 0.01 0.00 88 1014.0
20260505012305 74 275 0.9 3.5 0.00 0.01 0.00 88 1013.9
20260505012105 74 278 0.9 3.5 0.00 0.01 0.00 88 1014.0
20260505012005 74 276 0.9 3.5 0.00 0.01 0.00 88 1013.9
20260505011905 74 273 0.9 3.5 0.00 0.01 0.00 89 1014.1
20260505011720 74 275 0.9 3.5 0.00 0.01 0.00 89 1013.9
20260505011706 74 276 0.9 3.5 0.00 0.01 0.00 89 1013.9
20260505011618 74 277 0.9 3.5 0.00 0.01 0.00 89 1013.9
20260505011606 74 278 0.9 3.5 0.00 0.01 0.00 89 1013.9
20260505011306 74 281 1.7 3.5 0.00 0.01 0.00 89 1014.1
20260505011206 73 280 1.7 3.5 0.00 0.01 0.00 89 1014.0
20260505011107 73 282 1.7 3.5 0.00 0.01 0.00 89 1014.2
20260505011005 73 281 1.7 3.5 0.00 0.01 0.00 89 1014.1
20260505010906 73 288 1.7 3.5 0.00 0.01 0.00 89 1014.3
20260505010821 73 287 1.7 3.5 0.00 0.01 0.00 89 1014.2
20260505010806 73 286 1.7 3.5 0.00 0.01 0.00 89 1014.2
20260505010706 73 283 1.7 3.5 0.00 0.01 0.00 89 1014.2
20260505010505 73 281 1.7 3.5 0.00 0.01 0.00 89 1014.3
20260505010421 73 282 1.7 3.5 0.00 0.01 0.00 89 1014.2
20260505010405 73 283 1.7 3.5 0.00 0.01 0.00 89 1014.2
20260505010320 73 285 1.7 5.2 0.00 0.01 0.00 89 1014.2
20260505010306 73 287 1.7 5.2 0.00 0.01 0.00 89 1014.2
20260505010121 73 303 1.7 7.8 0.00 0.01 0.00 90 1014.4
20260505010006 73 303 1.7 7.8 0.00 0.01 0.00 90 1014.4
20260505005806 73 302 1.7 7.8 0.00 0.01 0.00 90 1014.2
20260505005705 72 308 1.7 7.8 0.00 0.01 0.00 90 1014.1
20260505005620 72 312 1.7 7.8 0.00 0.01 0.00 90 1014.3
20260505005605 72 314 1.7 7.8 0.00 0.01 0.00 90 1014.3
20260505005505 72 319 1.7 7.8 0.00 0.01 0.00 90 1014.2
20260505005306 72 301 0.9 7.8 0.00 0.01 0.00 90 1014.1
20260505005205 72 271 0.9 5.2 0.00 0.01 0.00 90 1014.2
20260505005105 72 260 0.9 5.2 0.00 0.01 0.00 90 1014.1
20260505005006 72 256 0.9 5.2 0.00 0.01 0.00 90 1014.2
20260505004906 72 252 0.9 5.2 0.00 0.01 0.00 90 1014.2
20260505004805 72 248 0.9 5.2 0.00 0.01 0.00 90 1014.4
20260505004705 72 254 0.9 5.2 0.00 0.01 0.00 90 1014.2
20260505004604 72 255 0.9 5.2 0.00 0.01 0.00 90 1014.2
20260505004504 72 259 0.9 5.2 0.00 0.01 0.00 91 1014.4
20260505004406 71 266 0.9 5.2 0.00 0.01 0.00 91 1014.0
20260505004306 71 272 0.9 5.2 0.00 0.01 0.00 91 1014.3
20260505004206 71 287 0.9 2.6 0.00 0.01 0.00 91 1014.1
20260505004105 71 301 0.9 2.6 0.00 0.01 0.00 91 1014.3
20260505004006 71 306 0.9 2.6 0.00 0.01 0.00 91 1014.3
20260505003906 71 310 0.9 3.5 0.00 0.01 0.00 91 1014.4
20260505003819 71 311 0.9 3.5 0.00 0.01 0.00 91 1014.4
20260505003806 71 311 0.9 3.5 0.00 0.01 0.00 91 1014.4
20260505003707 71 310 0.9 3.5 0.00 0.01 0.00 91 1014.3
20260505003618 71 308 0.9 3.5 0.00 0.01 0.00 91 1014.2
20260505003505 71 301 0.9 3.5 0.00 0.01 0.00 91 1014.1
20260505003306 71 296 0.9 3.5 0.00 0.01 0.00 91 1014.3
20260505003206 71 291 0.9 3.5 0.00 0.01 0.00 91 1014.4
20260505003106 71 283 0.9 3.5 0.00 0.01 0.00 91 1014.5
20260505003006 71 271 0.9 3.5 0.00 0.01 0.00 91 1014.4
20260505002918 71 265 0.9 3.5 0.00 0.01 0.00 91 1014.5
20260505002905 71 263 0.9 3.5 0.00 0.01 0.00 91 1014.5
20260505002819 71 255 0.9 2.6 0.00 0.01 0.00 91 1014.6
20260505002805 71 254 0.9 2.6 0.00 0.01 0.00 91 1014.6
20260505002505 70 243 0.9 5.2 0.00 0.01 0.00 91 1014.5
20260505002419 70 245 1.7 5.2 0.00 0.01 0.00 91 1014.5
20260505002405 70 247 1.7 5.2 0.00 0.01 0.00 91 1014.5
20260505002304 70 241 1.7 5.2 0.00 0.01 0.00 91 1014.6
20260505002106 70 233 1.7 5.2 0.00 0.01 0.00 91 1014.7
20260505002004 70 225 2.6 6.1 0.00 0.01 0.00 91 1014.7
20260505001906 70 223 1.7 6.1 0.00 0.01 0.00 91 1014.7
20260505001806 70 222 1.7 6.1 0.00 0.01 0.00 91 1014.7
20260505001706 70 221 1.7 6.1 0.00 0.01 0.00 91 1014.7
20260505001605 70 224 1.7 6.1 0.00 0.01 0.00 91 1014.6
20260505001406 70 207 0.9 6.1 0.00 0.01 0.00 91 1014.8
20260505001305 70 227 0.9 6.1 0.00 0.01 0.00 92 1014.8
20260505001205 70 292 0.9 6.1 0.00 0.01 0.00 92 1014.5
20260505001105 70 329 0.9 6.1 0.00 0.01 0.00 92 1014.9
20260505001005 70 331 0.9 2.6 0.00 0.01 0.00 92 1015.0
20260505000906 70 330 0.9 2.6 0.00 0.01 0.00 92 1014.9
20260505000806 70 320 0.9 2.6 0.00 0.01 0.00 92 1014.8
20260505000704 70 308 0.9 2.6 0.00 0.01 0.00 92 1014.8
20260505000606 70 289 0.9 2.6 0.00 0.01 0.00 92 1014.9
20260505000520 70 292 0.9 2.6 0.00 0.01 0.00 92 1014.7
20260505000506 70 291 0.9 2.6 0.00 0.01 0.00 92 1014.7
20260505000420 70 294 0.9 2.6 0.00 0.01 0.00 92 1014.9
20260505000405 70 296 0.9 2.6 0.00 0.01 0.00 92 1014.9
20260505000106 69 266 0.9 3.5 0.00 0.01 0.00 92 1014.8
20260505000006 69 254 0.9 3.5 0.00 0.01 0.00 92 1014.8
20260504235905 69 257 0.9 3.5 0.00 0.01 0.00 92 1014.8
20260504235805 69 257 1.7 3.5 0.00 0.01 0.00 92 1014.9
20260504235706 69 252 1.7 3.5 0.00 0.01 0.00 92 1015.1
20260504235606 69 243 1.7 3.5 0.00 0.01 0.00 92 1015.0
20260504235507 69 233 1.7 3.5 0.00 0.01 0.00 92 1014.8
20260504235406 69 223 1.7 3.5 0.00 0.01 0.00 92 1014.8
20260504235306 69 214 1.7 5.2 0.00 0.01 0.00 92 1015.0
20260504235205 69 212 1.7 5.2 0.00 0.01 0.00 92 1014.9
20260504235106 69 211 1.7 5.2 0.00 0.01 0.00 92 1015.0
20260504235005 69 206 1.7 5.2 0.00 0.01 0.00 92 1014.9
20260504234906 69 201 1.7 5.2 0.00 0.01 0.00 92 1015.0
20260504234806 69 200 1.7 5.2 0.00 0.01 0.00 92 1014.8
20260504234706 69 201 1.7 5.2 0.00 0.01 0.00 92 1014.8
20260504234620 69 202 1.7 5.2 0.00 0.01 0.00 92 1014.7
20260504234606 69 202 1.7 5.2 0.00 0.01 0.00 92 1014.7
20260504234505 69 202 1.7 5.2 0.00 0.01 0.00 92 1014.9
20260504234305 69 224 0.9 5.2 0.00 0.01 0.00 92 1014.9
20260504234206 69 233 0.9 3.5 0.00 0.01 0.00 92 1015.1
20260504234105 68 241 0.9 3.5 0.00 0.01 0.00 92 1014.6
20260504234004 68 245 0.9 3.5 0.00 0.01 0.00 92 1015.1
20260504233920 68 254 0.9 3.5 0.00 0.01 0.00 92 1014.8
20260504233906 68 255 0.9 3.5 0.00 0.01 0.00 92 1014.8
20260504233820 68 260 0.9 3.5 0.00 0.01 0.00 92 1015.0
20260504233806 68 261 0.9 3.5 0.00 0.01 0.00 92 1015.0
20260504233507 68 288 1.7 5.2 0.00 0.01 0.00 92 1014.9
20260504233406 68 284 1.7 5.2 0.00 0.01 0.00 92 1014.8
20260504233320 68 280 1.7 5.2 0.00 0.01 0.00 92 1015.0
20260504233305 68 279 1.7 5.2 0.00 0.01 0.00 92 1015.0
20260504233205 68 279 1.7 5.2 0.00 0.01 0.00 92 1014.9
20260504233005 68 287 0.9 5.2 0.00 0.01 0.00 92 1015.0
20260504232906 68 287 0.9 5.2 0.00 0.01 0.00 92 1014.7
20260504232804 68 284 0.9 5.2 0.00 0.01 0.00 92 1014.9
20260504232705 68 281 0.9 5.2 0.00 0.01 0.00 93 1015.1
20260504232605 68 277 0.9 5.2 0.00 0.01 0.00 93 1015.1
20260504232505 68 272 0.9 5.2 0.00 0.01 0.00 93 1015.0
20260504232405 68 273 0.9 2.6 0.00 0.01 0.00 93 1015.0
20260504232305 67 274 0.9 1.7 0.00 0.01 0.00 93 1014.9
20260504232205 67 274 0.9 1.7 0.00 0.01 0.00 93 1014.9
20260504232118 67 274 0.9 2.6 0.00 0.01 0.00 93 1014.8
20260504232105 67 274 0.9 2.6 0.00 0.01 0.00 93 1014.8
20260504232005 67 272 0.9 2.6 0.00 0.01 0.00 93 1014.8
20260504231820 67 269 0.9 2.6 0.00 0.01 0.00 93 1014.9
20260504231805 67 269 0.9 2.6 0.00 0.01 0.00 93 1014.9
20260504231719 67 267 0.9 2.6 0.00 0.01 0.00 93 1015.1
20260504231705 67 267 0.9 2.6 0.00 0.01 0.00 93 1015.1
20260504231620 67 267 0.9 2.6 0.00 0.01 0.00 93 1014.9
20260504231305 67 263 0.9 2.6 0.00 0.01 0.00 93 1015.0
20260504231205 67 262 0.9 2.6 0.00 0.01 0.00 93 1014.9
20260504231105 67 260 0.9 2.6 0.00 0.01 0.00 93 1014.9
20260504231005 67 259 0.9 2.6 0.00 0.01 0.00 93 1014.8
20260504230905 67 259 0.9 1.7 0.00 0.01 0.00 93 1015.1
20260504230805 67 259 0.0 1.7 0.00 0.01 0.00 93 1014.9
20260504230705 67 259 0.0 0.9 0.00 0.01 0.00 93 1014.8
20260504230605 67 259 0.0 0.9 0.00 0.01 0.00 93 1015.1
20260504230505 67 259 0.0 0.9 0.00 0.01 0.00 93 1014.9
20260504230405 66 259 0.0 0.9 0.00 0.01 0.00 93 1014.9
20260504230306 66 259 0.0 0.9 0.00 0.01 0.00 93 1015.1
20260504230206 66 259 0.0 0.9 0.00 0.01 0.00 93 1015.0
20260504230121 66 259 0.0 0.9 0.00 0.01 0.00 93 1014.9
20260504230105 66 259 0.0 0.9 0.00 0.01 0.00 93 1014.9
20260504230019 66 259 0.0 0.9 0.00 0.01 0.00 93 1015.0
20260504230005 66 259 0.0 0.9 0.00 0.01 0.00 93 1015.0
20260504225705 66 259 0.0 0.9 0.00 0.01 0.01 93 1014.8
20260504225621 66 259 0.0 0.9 0.00 0.01 0.01 93 1015.0
20260504225605 66 259 0.0 0.9 0.00 0.01 0.01 93 1015.0
20260504225520 66 259 0.0 0.9 0.00 0.01 0.01 93 1015.0
20260504225506 66 258 0.0 0.9 0.00 0.01 0.01 93 1015.0
20260504225205 66 254 0.0 2.6 0.00 0.01 0.01 93 1015.0
20260504225105 66 251 0.0 2.6 0.00 0.01 0.01 93 1014.8
20260504225005 66 246 0.0 2.6 0.00 0.01 0.01 93 1014.9
20260504224905 66 243 0.9 2.6 0.00 0.01 0.01 93 1014.9
20260504224806 66 239 0.9 2.6 0.00 0.01 0.01 93 1014.8
20260504224705 66 236 0.9 2.6 0.00 0.01 0.01 93 1014.9
20260504224605 66 235 0.9 2.6 0.00 0.01 0.01 93 1014.7
20260504224504 66 234 0.9 2.6 0.01 0.01 0.01 93 1014.8
20260504224405 66 232 0.9 2.6 0.01 0.01 0.01 93 1015.0
20260504224306 66 230 0.9 2.6 0.01 0.01 0.01 93 1015.0
20260504224204 66 221 0.9 2.6 0.01 0.01 0.01 93 1015.0
20260504224104 66 216 0.9 3.5 0.01 0.01 0.01 93 1015.0
20260504224005 66 213 0.9 3.5 0.01 0.01 0.01 93 1014.9
20260504223905 66 209 0.9 3.5 0.01 0.01 0.01 93 1015.0
20260504223805 66 204 0.9 3.5 0.01 0.01 0.01 93 1015.1
20260504223705 65 195 0.9 3.5 0.01 0.01 0.01 93 1015.1
20260504223605 66 193 0.9 3.5 0.01 0.01 0.01 93 1015.1
20260504223505 66 196 0.9 3.5 0.01 0.01 0.01 93 1015.3
20260504223405 66 197 0.9 3.5 0.01 0.01 0.01 93 1015.1
20260504223305 66 198 0.9 3.5 0.01 0.01 0.01 93 1015.1
20260504223205 65 202 0.9 3.5 0.01 0.01 0.01 93 1015.1
20260504223120 65 205 0.9 3.5 0.01 0.01 0.01 93 1015.1
20260504223105 65 205 0.9 2.6 0.01 0.01 0.01 93 1015.1
20260504223004 65 207 0.9 2.6 0.01 0.01 0.01 93 1014.9
20260504222806 65 214 0.9 2.6 0.01 0.01 0.01 93 1015.1
20260504222706 65 218 0.9 2.6 0.01 0.01 0.01 93 1015.2
20260504222606 65 221 0.9 2.6 0.01 0.01 0.01 93 1015.2
20260504222506 65 224 0.9 3.5 0.01 0.01 0.01 93 1015.2
20260504222405 65 227 1.7 3.5 0.01 0.01 0.01 93 1015.3
20260504222321 65 229 1.7 3.5 0.01 0.01 0.01 93 1015.1
20260504222305 65 229 1.7 3.5 0.01 0.01 0.01 93 1015.1
20260504222205 65 231 1.7 3.5 0.01 0.01 0.01 93 1014.8
20260504222005 65 230 1.7 3.5 0.01 0.01 0.01 93 1015.1
20260504221905 65 230 1.7 3.5 0.01 0.01 0.01 93 1015.0
20260504221806 65 232 1.7 3.5 0.01 0.01 0.01 93 1015.1
20260504221719 65 234 1.7 3.5 0.01 0.01 0.01 93 1015.0
20260504221706 65 235 0.9 3.5 0.01 0.01 0.01 93 1015.0
20260504221606 65 239 0.9 3.5 0.01 0.01 0.01 93 1015.1
20260504221405 65 238 0.9 2.6 0.01 0.01 0.01 93 1015.0
20260504221306 65 238 0.9 2.6 0.01 0.01 0.01 93 1015.0
20260504221205 65 240 0.9 2.6 0.01 0.01 0.01 93 1015.0
20260504221105 65 248 0.9 2.6 0.01 0.01 0.01 93 1015.1
20260504221004 65 248 0.9 2.6 0.01 0.01 0.01 93 1015.1
20260504220906 65 246 0.9 2.6 0.01 0.01 0.01 93 1015.0
20260504220806 65 245 0.9 2.6 0.01 0.01 0.01 93 1015.0
20260504220704 65 244 0.9 2.6 0.01 0.01 0.01 93 1015.0
20260504220606 65 243 0.9 2.6 0.01 0.01 0.01 93 1014.9
20260504220505 65 240 0.9 2.6 0.01 0.01 0.01 93 1014.8
20260504220406 65 239 0.9 2.6 0.01 0.01 0.01 93 1014.9
20260504220307 65 237 0.9 2.6 0.01 0.01 0.01 93 1015.0
20260504220205 65 232 0.9 2.6 0.01 0.01 0.01 93 1015.1
20260504220104 65 224 0.0 1.7 0.01 0.01 0.01 93 1015.0
20260504220005 65 221 0.0 1.7 0.01 0.01 0.01 93 1015.2
20260504215919 65 219 0.0 1.7 0.01 0.01 0.01 93 1015.0
20260504215904 65 218 0.0 0.9 0.01 0.01 0.01 93 1015.0
20260504215806 65 217 0.0 0.9 0.01 0.01 0.01 93 1014.9
20260504215606 65 217 0.0 0.9 0.01 0.01 0.01 93 1015.0
20260504215505 65 217 0.0 0.9 0.01 0.01 0.01 93 1015.3
20260504215405 65 217 0.0 0.9 0.01 0.01 0.01 93 1015.0
20260504215319 65 217 0.0 0.9 0.01 0.01 0.01 93 1014.9
20260504215305 65 217 0.0 0.9 0.01 0.01 0.01 93 1014.9
20260504215005 65 217 0.0 0.9 0.01 0.01 0.01 93 1015.1
20260504214905 64 217 0.0 0.9 0.01 0.01 0.01 93 1015.2
20260504214805 64 217 0.0 0.9 0.01 0.01 0.01 93 1015.0
20260504214706 64 217 0.0 0.9 0.01 0.01 0.01 93 1015.0
20260504214605 64 217 0.0 0.9 0.01 0.01 0.01 93 1015.2
20260504214505 64 217 0.0 0.9 0.00 0.00 0.00 93 1014.9
20260504214405 64 217 0.0 0.9 0.00 0.00 0.00 93 1014.9
20260504214305 64 217 0.0 0.9 0.00 0.00 0.00 93 1014.8
20260504214206 64 217 0.0 0.9 0.00 0.00 0.00 93 1015.0
20260504214120 64 217 0.0 0.9 0.00 0.00 0.00 93 1015.0
20260504214106 64 217 0.0 0.9 0.00 0.00 0.00 93 1015.0
20260504214006 64 217 0.0 0.9 0.00 0.00 0.00 93 1015.0
20260504213921 64 217 0.0 0.9 0.00 0.00 0.00 93 1014.8
20260504213820 64 217 0.0 0.9 0.00 0.00 0.00 93 1015.2
20260504213805 64 217 0.0 0.9 0.00 0.00 0.00 93 1015.2
20260504213505 64 0 0.0 0.0 0.00 0.00 0.00 93 1015.1
20260504213406 64 0 0.0 0.0 0.00 0.00 0.00 93 1014.8
20260504213321 64 0 0.0 0.0 0.00 0.00 0.00 93 1015.2
20260504213305 64 0 0.0 0.0 0.00 0.00 0.00 93 1015.2
20260504213206 64 0 0.0 0.0 0.00 0.00 0.00 93 1015.2
20260504213006 64 217 0.0 0.9 0.00 0.00 0.00 93 1014.8
20260504212904 64 217 0.0 1.7 0.00 0.00 0.00 93 1014.9
20260504212806 64 217 0.0 1.7 0.00 0.00 0.00 93 1014.9
20260504212706 64 216 0.0 1.7 0.00 0.00 0.00 93 1015.0
20260504212619 64 216 0.0 1.7 0.00 0.00 0.00 93 1014.7
20260504212606 64 216 0.0 1.7 0.00 0.00 0.00 93 1014.7
20260504212506 64 216 0.0 1.7 0.00 0.00 0.00 93 1014.8
20260504212420 64 216 0.0 1.7 0.00 0.00 0.00 93 1014.8
20260504212306 64 216 0.0 1.7 0.00 0.02 0.00 92 1014.8
20260504212106 64 215 0.0 1.7 0.00 0.02 0.00 92 1014.9
20260504212006 64 214 0.0 1.7 0.00 0.02 0.00 92 1014.8
20260504211906 64 212 0.0 0.9 0.00 0.02 0.00 92 1014.7
20260504211804 64 211 0.0 0.9 0.00 0.02 0.00 92 1014.4
20260504211706 64 210 0.0 0.9 0.00 0.02 0.00 92 1014.7
20260504211506 64 207 0.0 0.9 0.00 0.02 0.00 92 1014.7
20260504211406 64 206 0.0 0.9 0.00 0.02 0.00 92 1014.4
20260504211306 64 205 0.0 0.9 0.00 0.02 0.00 92 1014.6
20260504211204 64 204 0.0 0.9 0.00 0.02 0.00 92 1014.8
20260504211120 64 199 0.0 0.9 0.00 0.02 0.00 92 1014.7
20260504211106 64 199 0.0 0.9 0.00 0.02 0.00 92 1014.7
20260504211005 64 199 0.0 1.7 0.00 0.02 0.00 92 1014.6
20260504210921 64 200 0.0 1.7 0.00 0.02 0.00 92 1014.6
20260504210805 64 200 0.0 1.7 0.00 0.02 0.00 92 1014.8
20260504210606 64 200 0.0 1.7 0.00 0.02 0.00 92 1015.0
20260504210504 64 201 0.0 1.7 0.00 0.02 0.00 92 1014.7
20260504210406 64 203 0.0 1.7 0.00 0.02 0.00 92 1014.7
20260504210306 64 203 0.0 1.7 0.00 0.02 0.00 92 1014.5
20260504210205 64 205 0.0 1.7 0.00 0.02 0.00 92 1014.8
20260504210105 64 208 0.0 1.7 0.00 0.02 0.00 92 1014.6
20260504210020 64 210 0.0 1.7 0.00 0.02 0.00 92 1014.8
20260504210006 64 211 0.0 1.7 0.00 0.02 0.00 92 1014.8
20260504205905 64 217 0.0 0.9 0.00 0.02 0.00 92 1014.5
20260504205621 64 217 0.0 0.9 0.00 0.02 0.00 92 1014.5
20260504205606 64 217 0.0 0.9 0.00 0.02 0.00 92 1014.5
20260504205506 64 217 0.0 1.7 0.00 0.02 0.00 92 1014.5
20260504205306 64 217 0.0 1.7 0.00 0.02 0.00 92 1014.6
20260504205205 64 217 0.0 1.7 0.00 0.02 0.00 92 1014.3
20260504205106 64 217 0.0 1.7 0.00 0.02 0.00 92 1014.6
20260504205005 64 217 0.0 1.7 0.00 0.02 0.00 92 1014.7
20260504204805 64 216 0.0 1.7 0.00 0.02 0.00 92 1014.5
20260504204705 64 216 0.0 1.7 0.00 0.02 0.00 92 1014.6
20260504204606 64 216 0.0 1.7 0.00 0.02 0.00 92 1014.5
20260504204505 64 216 0.0 0.9 0.00 0.02 0.00 92 1014.7
20260504204406 64 209 0.0 0.9 0.00 0.02 0.00 92 1014.5
20260504204305 64 190 0.0 0.9 0.00 0.02 0.00 92 1014.4
20260504204205 64 185 0.0 0.9 0.00 0.02 0.00 92 1014.5
20260504204105 64 170 0.0 0.9 0.00 0.02 0.00 92 1014.4
20260504204020 64 162 0.0 0.9 0.00 0.02 0.00 92 1014.3
20260504204005 64 159 0.0 0.9 0.00 0.02 0.00 92 1014.3
20260504203905 64 157 0.0 0.9 0.00 0.02 0.00 92 1014.3
20260504203706 64 148 0.0 0.9 0.00 0.02 0.00 92 1014.5
20260504203605 64 131 0.0 0.9 0.00 0.02 0.00 92 1014.3
20260504203519 64 131 0.0 0.9 0.00 0.02 0.00 92 1014.4
20260504203504 64 129 0.0 0.9 0.00 0.02 0.00 92 1014.4
20260504203406 64 114 0.0 0.9 0.00 0.02 0.00 92 1014.3
20260504203318 64 117 0.0 0.9 0.00 0.02 0.00 92 1014.4
20260504203205 64 122 0.0 0.9 0.00 0.02 0.00 92 1014.5
20260504202918 64 150 0.0 0.9 0.00 0.02 0.00 92 1014.4
20260504202906 64 155 0.0 0.9 0.00 0.02 0.00 92 1014.4
20260504202805 64 166 0.0 0.9 0.00 0.02 0.00 92 1014.4
20260504202720 64 169 0.0 0.9 0.00 0.02 0.00 92 1014.2
20260504202605 64 169 0.0 0.9 0.00 0.02 0.00 92 1014.3
20260504202405 64 169 0.0 0.9 0.00 0.02 0.00 92 1014.5
20260504202305 64 181 0.0 0.9 0.00 0.02 0.00 92 1014.2
20260504202205 64 181 0.0 0.9 0.00 0.02 0.00 92 1014.4
20260504202105 64 181 0.0 0.9 0.00 0.02 0.00 92 1014.3
20260504202006 64 181 0.0 0.9 0.00 0.02 0.00 92 1014.4
20260504201906 64 181 0.0 0.9 0.00 0.02 0.00 92 1014.3
20260504201821 64 181 0.0 0.9 0.00 0.02 0.00 92 1014.0
20260504201705 64 181 0.0 0.9 0.00 0.02 0.00 92 1014.2
20260504201505 64 181 0.0 0.9 0.00 0.02 0.00 92 1014.2
20260504201405 64 181 0.0 0.9 0.00 0.02 0.00 92 1014.3
20260504201204 64 181 0.0 0.9 0.00 0.02 0.00 92 1014.1
20260504201106 64 181 0.0 0.9 0.00 0.02 0.00 92 1014.3
20260504201005 64 181 0.0 0.9 0.00 0.02 0.00 92 1014.0
20260504200905 64 181 0.0 0.9 0.00 0.02 0.00 92 1014.1
20260504200804 64 0 0.0 0.0 0.00 0.02 0.00 92 1014.2
20260504200706 64 181 0.0 0.9 0.00 0.02 0.00 92 1014.3
20260504200605 64 181 0.0 0.9 0.00 0.02 0.00 92 1014.4
20260504200506 64 181 0.0 0.9 0.00 0.02 0.00 92 1014.1
20260504200405 64 181 0.0 0.9 0.00 0.02 0.00 92 1014.1
20260504200305 64 181 0.0 0.9 0.00 0.02 0.00 92 1014.2
20260504200205 64 181 0.0 0.9 0.00 0.02 0.00 92 1014.2
20260504200105 64 181 0.0 2.6 0.00 0.02 0.00 92 1014.1
20260504200004 64 180 0.0 2.6 0.00 0.02 0.00 92 1013.9
20260504195904 64 180 0.0 2.6 0.00 0.02 0.00 92 1014.1
20260504195705 64 189 0.0 2.6 0.00 0.02 0.00 92 1014.0
20260504195606 64 200 0.9 2.6 0.00 0.02 0.00 92 1014.2
20260504195506 64 205 0.9 2.6 0.00 0.02 0.00 92 1014.0
20260504195406 64 208 0.0 2.6 0.00 0.02 0.00 92 1014.2
20260504195305 64 211 0.0 2.6 0.00 0.02 0.00 92 1014.1
20260504195205 64 214 0.0 2.6 0.00 0.02 0.00 92 1013.8
20260504195119 64 222 0.0 2.6 0.00 0.02 0.00 92 1014.2
20260504195105 64 229 0.0 1.7 0.00 0.02 0.00 92 1014.2
20260504195005 64 234 0.0 1.7 0.00 0.02 0.00 92 1014.0
20260504194920 64 234 0.0 1.7 0.00 0.02 0.00 92 1013.9
20260504194806 64 234 0.0 2.6 0.00 0.02 0.00 92 1014.1
20260504194606 64 224 0.0 2.6 0.00 0.02 0.00 92 1014.0
20260504194505 64 218 0.9 2.6 0.00 0.02 0.00 92 1014.1
20260504194404 64 212 0.9 2.6 0.00 0.02 0.00 92 1014.0
20260504194306 64 210 0.9 2.6 0.00 0.02 0.00 92 1014.0
20260504194206 64 210 0.9 2.6 0.00 0.02 0.00 92 1014.2
20260504194106 64 210 0.9 2.6 0.00 0.02 0.00 92 1014.0
20260504194005 64 210 0.9 2.6 0.00 0.02 0.00 92 1013.8
20260504193906 64 208 0.9 2.6 0.00 0.02 0.00 92 1014.0
20260504193804 64 201 0.9 2.6 0.00 0.02 0.00 92 1013.8
20260504193706 64 195 0.0 1.7 0.00 0.02 0.00 92 1014.0
20260504193605 64 194 0.0 1.7 0.00 0.02 0.00 92 1014.0
20260504193404 64 194 0.0 0.9 0.00 0.02 0.00 92 1014.2
20260504193306 64 194 0.0 0.9 0.00 0.02 0.00 92 1014.2
20260504193206 64 194 0.0 0.9 0.00 0.02 0.00 92 1014.1
20260504193106 64 194 0.0 1.7 0.00 0.02 0.00 92 1014.1
20260504193006 64 194 0.0 1.7 0.00 0.02 0.00 92 1014.2
20260504192905 64 194 0.0 1.7 0.00 0.02 0.00 92 1014.2
20260504192806 64 194 0.0 1.7 0.00 0.02 0.00 92 1014.1
20260504192705 64 194 0.0 1.7 0.00 0.02 0.00 92 1014.0
20260504192606 64 193 0.0 1.7 0.00 0.02 0.00 92 1014.1
20260504192506 64 197 0.9 1.7 0.00 0.02 0.00 92 1014.0
20260504192406 64 200 0.9 1.7 0.00 0.02 0.00 92 1014.1
20260504192220 64 201 0.9 1.7 0.00 0.02 0.00 92 1014.1
20260504192206 64 202 0.9 1.7 0.00 0.02 0.00 92 1014.1
20260504192106 64 205 0.9 1.7 0.00 0.02 0.00 92 1014.0
20260504191906 64 207 0.9 1.7 0.00 0.02 0.00 92 1014.0
20260504191806 64 204 0.9 2.6 0.00 0.02 0.00 92 1014.1
20260504191706 64 206 0.9 3.5 0.00 0.02 0.00 92 1014.0
20260504191620 64 216 0.9 3.5 0.00 0.02 0.00 92 1013.9
20260504191605 64 217 0.9 3.5 0.00 0.02 0.00 92 1013.9
20260504191506 64 216 0.9 3.5 0.00 0.02 0.00 92 1014.2
20260504191306 64 216 0.9 3.5 0.00 0.02 0.00 92 1014.0
20260504191205 64 211 0.9 3.5 0.00 0.02 0.00 92 1013.9
20260504191006 64 206 0.9 3.5 0.00 0.02 0.00 92 1014.0
20260504190905 64 202 0.9 3.5 0.00 0.02 0.00 92 1014.0
20260504190804 64 204 0.9 3.5 0.00 0.02 0.00 92 1013.9
20260504190706 64 204 0.9 3.5 0.00 0.02 0.00 92 1013.8
20260504190620 64 190 0.9 3.5 0.00 0.02 0.00 92 1014.0
20260504190605 64 185 0.9 3.5 0.00 0.02 0.00 92 1014.0
20260504190506 64 185 0.0 1.7 0.00 0.02 0.00 91 1014.1
20260504190307 64 185 0.0 1.7 0.00 0.02 0.00 92 1014.0
20260504190206 64 190 0.0 1.7 0.00 0.02 0.00 92 1013.8
20260504190106 64 189 0.0 1.7 0.00 0.02 0.00 92 1013.9
20260504185906 64 207 0.0 1.7 0.00 0.02 0.00 92 1013.7
20260504185805 64 217 0.0 1.7 0.00 0.02 0.00 92 1013.6
20260504185705 64 222 0.0 1.7 0.00 0.02 0.00 92 1013.7
20260504185606 64 228 0.0 1.7 0.00 0.02 0.00 92 1013.9
20260504185506 64 232 0.0 1.7 0.00 0.02 0.00 91 1013.6
20260504185406 64 233 0.0 1.7 0.00 0.02 0.00 91 1013.9
20260504185306 64 234 0.0 1.7 0.00 0.02 0.00 91 1013.8
20260504185218 64 237 0.0 1.7 0.00 0.02 0.00 91 1013.9
20260504185205 64 238 0.0 1.7 0.00 0.02 0.00 91 1013.9
20260504185106 64 240 0.0 1.7 0.00 0.02 0.00 91 1013.8
20260504184904 64 243 0.0 1.7 0.00 0.02 0.00 91 1013.8
20260504184806 64 247 0.0 1.7 0.00 0.02 0.00 91 1013.7
20260504184706 64 247 0.0 1.7 0.00 0.02 0.00 91 1013.6
20260504184605 64 247 0.0 1.7 0.00 0.02 0.00 91 1013.9
20260504184504 64 248 0.0 1.7 0.00 0.02 0.00 91 1013.8
20260504184406 64 248 0.0 1.7 0.00 0.02 0.00 91 1013.6
20260504184306 64 249 0.0 1.7 0.00 0.02 0.00 91 1013.7
20260504184220 64 251 0.0 1.7 0.00 0.02 0.00 92 1013.7
20260504183905 64 0 0.0 0.0 0.00 0.02 0.00 92 1013.6
20260504183805 64 0 0.0 0.0 0.00 0.02 0.00 92 1013.6
20260504183705 64 0 0.0 0.0 0.00 0.02 0.00 91 1013.7
20260504183604 64 0 0.0 0.0 0.00 0.02 0.00 91 1013.7
20260504183505 64 0 0.0 0.0 0.00 0.02 0.00 92 1013.9
20260504183405 64 0 0.0 0.0 0.00 0.02 0.00 91 1013.7
20260504183320 64 0 0.0 0.0 0.00 0.02 0.00 92 1013.6
20260504183305 64 253 0.0 0.9 0.00 0.02 0.00 92 1013.6
20260504183205 64 253 0.0 0.9 0.00 0.02 0.00 91 1013.9
20260504183006 64 254 0.0 1.7 0.00 0.02 0.00 91 1013.6
20260504182905 64 254 0.0 1.7 0.00 0.02 0.00 91 1013.6
20260504182806 64 254 0.0 1.7 0.00 0.02 0.00 91 1013.6
20260504182605 64 253 0.0 1.7 0.00 0.02 0.00 91 1013.6
20260504182505 64 253 0.0 1.7 0.00 0.02 0.00 91 1013.6
20260504182405 64 253 0.0 1.7 0.00 0.02 0.00 91 1013.6
20260504182305 64 253 0.0 1.7 0.00 0.02 0.00 91 1013.7
20260504182204 64 253 0.0 1.7 0.00 0.02 0.00 91 1013.5
20260504182106 64 253 0.0 0.9 0.00 0.02 0.00 91 1013.6
20260504182005 64 253 0.0 0.9 0.00 0.02 0.00 91 1013.6
20260504181905 64 253 0.0 0.9 0.00 0.02 0.00 91 1013.4
20260504181806 64 257 0.0 0.9 0.00 0.02 0.00 91 1013.5
20260504181721 64 258 0.0 0.9 0.00 0.02 0.00 91 1013.5
20260504181705 64 259 0.0 0.9 0.00 0.02 0.00 91 1013.5
20260504181605 64 261 0.0 0.9 0.00 0.02 0.00 91 1013.5
20260504181405 64 263 0.0 0.9 0.00 0.02 0.00 91 1013.4
20260504181305 64 265 0.0 0.9 0.00 0.02 0.00 91 1013.4
20260504181206 64 265 0.0 0.9 0.00 0.02 0.00 91 1013.4
20260504181106 64 265 0.0 0.9 0.00 0.02 0.00 91 1013.7
20260504181005 64 265 0.0 0.9 0.00 0.02 0.00 91 1013.5
20260504180905 64 265 0.0 1.7 0.00 0.02 0.00 91 1013.4
20260504180820 64 266 0.0 1.7 0.00 0.02 0.00 91 1013.6
20260504180704 64 267 0.0 1.7 0.00 0.02 0.00 91 1013.3
20260504180506 64 268 0.0 1.7 0.00 0.02 0.00 91 1013.4
20260504180405 64 269 0.0 1.7 0.00 0.02 0.00 91 1013.5
20260504180305 64 269 0.0 1.7 0.00 0.02 0.00 91 1013.4
20260504180205 64 270 0.0 1.7 0.00 0.02 0.00 91 1013.6
20260504180105 64 271 0.0 1.7 0.00 0.02 0.00 91 1013.5
20260504180006 64 272 0.9 1.7 0.00 0.02 0.00 91 1013.5
20260504175906 64 273 0.9 1.7 0.00 0.02 0.00 91 1013.2
20260504175805 64 274 0.0 1.7 0.00 0.02 0.00 91 1013.5
20260504175706 64 274 0.0 1.7 0.00 0.02 0.00 91 1013.6
20260504175606 64 274 0.0 1.7 0.00 0.02 0.00 91 1013.5
20260504175506 64 274 0.0 1.7 0.00 0.02 0.00 91 1013.5
20260504175406 64 274 0.0 1.7 0.00 0.02 0.00 91 1013.4
20260504175306 64 274 0.0 1.7 0.00 0.02 0.00 91 1013.5
20260504175106 64 274 0.0 1.7 0.00 0.02 0.00 91 1013.4
20260504175006 64 274 0.0 0.9 0.00 0.02 0.00 91 1013.4
20260504174905 64 0 0.0 0.0 0.00 0.02 0.00 91 1013.5
20260504174805 64 0 0.0 0.0 0.00 0.02 0.00 91 1013.3
20260504174706 64 0 0.0 0.0 0.00 0.02 0.00 91 1013.4
20260504174406 64 0 0.0 0.0 0.00 0.02 0.00 91 1013.3
20260504174305 64 0 0.0 0.0 0.00 0.02 0.00 91 1013.2
20260504174206 64 0 0.0 0.0 0.00 0.02 0.00 91 1013.5
20260504174107 64 0 0.0 0.0 0.00 0.02 0.00 91 1013.0
20260504174006 64 0 0.0 0.0 0.00 0.02 0.00 91 1013.2
20260504173906 64 0 0.0 0.0 0.00 0.02 0.00 91 1013.0
20260504173804 64 0 0.0 0.0 0.00 0.02 0.00 91 1013.0
20260504173706 64 273 0.0 0.9 0.00 0.02 0.00 91 1013.0
20260504173605 64 273 0.0 0.9 0.00 0.02 0.00 91 1013.2
20260504173505 64 273 0.0 0.9 0.00 0.02 0.00 91 1013.2
20260504173404 64 273 0.0 0.9 0.00 0.02 0.00 91 1013.1
20260504173205 64 273 0.0 0.9 0.00 0.02 0.00 91 1013.3
20260504173106 64 273 0.0 0.9 0.00 0.02 0.00 91 1013.2
20260504173006 65 273 0.0 0.9 0.00 0.02 0.00 91 1013.4
20260504172906 65 273 0.0 0.9 0.00 0.02 0.00 91 1013.4
20260504172805 65 273 0.0 0.9 0.00 0.02 0.00 91 1013.3
20260504172706 64 0 0.0 0.0 0.00 0.02 0.00 91 1013.2
20260504172606 65 0 0.0 0.0 0.00 0.02 0.00 91 1013.1
20260504172506 65 0 0.0 0.0 0.00 0.02 0.00 91 1013.2
20260504172405 65 0 0.0 0.0 0.00 0.02 0.00 91 1013.2
20260504172306 65 0 0.0 0.0 0.00 0.02 0.00 91 1013.4
20260504172207 65 0 0.0 0.0 0.00 0.02 0.00 91 1013.3
20260504172106 65 0 0.0 0.0 0.00 0.02 0.00 91 1013.4
20260504172005 65 0 0.0 0.0 0.00 0.02 0.00 91 1013.4
20260504171906 65 0 0.0 0.0 0.00 0.02 0.00 91 1013.2
20260504171805 65 0 0.0 0.0 0.00 0.02 0.00 91 1013.2
20260504171706 65 0 0.0 0.0 0.00 0.02 0.00 91 1013.2
20260504171606 65 0 0.0 0.0 0.00 0.02 0.00 91 1013.3
20260504171520 65 0 0.0 0.0 0.00 0.02 0.00 91 1013.1
20260504171405 65 0 0.0 0.0 0.00 0.02 0.00 91 1013.4
20260504171106 65 0 0.0 0.0 0.00 0.02 0.00 91 1013.1
20260504171006 65 0 0.0 0.0 0.00 0.02 0.00 91 1013.2
20260504170906 65 0 0.0 0.0 0.00 0.02 0.00 91 1013.2
20260504170805 64 0 0.0 0.0 0.00 0.02 0.00 91 1013.1
20260504170706 65 0 0.0 0.0 0.00 0.02 0.00 91 1013.3
20260504170605 64 0 0.0 0.0 0.00 0.02 0.00 91 1013.3
20260504170505 65 0 0.0 0.0 0.00 0.02 0.00 91 1013.1
20260504170406 65 0 0.0 0.0 0.00 0.02 0.00 91 1013.2
20260504170306 64 0 0.0 0.0 0.00 0.02 0.00 91 1013.3
20260504170106 64 273 0.0 0.9 0.00 0.02 0.00 91 1013.1
20260504160405 65 140 0.0 0.9 0.00 0.02 0.00 90 1013.8
20260504160304 65 140 0.0 0.9 0.00 0.02 0.00 90 1013.6
20260504160205 65 140 0.0 0.9 0.00 0.02 0.00 90 1013.5
20260504160106 65 140 0.0 0.9 0.00 0.02 0.00 90 1013.6
20260504151106 66 145 0.0 1.7 0.00 0.06 0.00 91 1014.0
20260504151006 66 154 0.0 1.7 0.00 0.06 0.00 91 1014.2
20260504150921 66 146 0.0 1.7 0.00 0.06 0.00 91 1014.1
20260504150907 66 141 0.0 1.7 0.00 0.06 0.00 91 1014.1
20260504150806 66 130 0.9 1.7 0.00 0.06 0.00 91 1014.1
20260504150604 66 110 0.9 2.6 0.00 0.06 0.00 91 1014.1
20260504150506 66 105 0.9 2.6 0.00 0.06 0.00 91 1014.2
20260504150406 66 101 0.9 2.6 0.00 0.06 0.00 91 1014.3
20260504150306 66 96 0.9 2.6 0.00 0.06 0.00 91 1014.2
20260504150205 66 88 0.9 2.6 0.00 0.06 0.00 91 1014.3
20260504150106 66 87 0.9 2.6 0.00 0.06 0.00 91 1014.4
20260504141306 66 79 0.0 0.9 0.00 0.06 0.00 90 1014.5
20260504141206 66 79 0.0 1.7 0.00 0.06 0.00 90 1014.5
20260504141104 66 79 0.0 1.7 0.00 0.06 0.00 90 1014.4
20260504141006 66 79 0.0 1.7 0.00 0.06 0.00 90 1014.4
20260504140906 66 79 0.0 1.7 0.00 0.06 0.00 90 1014.5
20260504140805 66 79 0.9 1.7 0.00 0.06 0.00 90 1014.5
20260504140704 66 79 0.9 1.7 0.00 0.06 0.00 90 1014.6
20260504140606 66 79 0.9 1.7 0.00 0.06 0.00 90 1014.7
20260504140506 66 79 0.9 1.7 0.00 0.06 0.00 90 1014.7
20260504140406 66 79 0.9 1.7 0.00 0.06 0.00 90 1014.8
20260504140306 66 79 0.9 1.7 0.00 0.06 0.00 90 1014.7
20260504140206 66 79 0.9 1.7 0.00 0.06 0.00 90 1014.7
20260504140106 66 79 0.0 0.9 0.00 0.06 0.00 90 1014.6
20260504130805 66 0 0.0 0.0 0.00 0.11 0.00 89 1015.1
20260504130704 66 0 0.0 0.0 0.00 0.11 0.00 89 1014.9
20260504130606 66 0 0.0 0.0 0.00 0.11 0.00 89 1015.0
20260504130505 66 0 0.0 0.0 0.00 0.11 0.00 89 1015.1
20260504130405 66 0 0.0 0.0 0.00 0.11 0.00 89 1014.9
20260504130205 66 0 0.0 0.0 0.00 0.11 0.00 89 1015.1
20260504130105 66 0 0.0 0.0 0.00 0.11 0.00 89 1015.0
20260504120306 67 88 0.9 1.7 0.00 0.11 0.00 88 1015.5
20260504120205 67 90 0.9 1.7 0.00 0.11 0.00 88 1015.3
20260504120107 67 93 0.0 1.7 0.00 0.11 0.00 88 1015.4
20260504110720 68 71 0.9 3.5 0.00 0.11 0.00 89 1015.5
20260504110706 68 70 0.9 3.5 0.00 0.11 0.00 89 1015.5
20260504110606 68 65 0.9 3.5 0.00 0.11 0.00 89 1015.5
20260504110406 68 56 0.9 3.5 0.00 0.11 0.00 89 1015.6
20260504110306 68 55 0.9 3.5 0.00 0.11 0.00 89 1015.6
20260504110206 68 55 0.9 3.5 0.00 0.11 0.00 88 1015.6
20260504110106 68 60 0.9 3.5 0.00 0.11 0.00 88 1015.7
20260504100604 69 88 0.0 1.7 0.00 0.11 0.00 88 1015.5
20260504100506 69 84 0.0 1.7 0.00 0.11 0.00 88 1015.5
20260504100404 69 77 0.0 1.7 0.00 0.11 0.00 88 1015.3
20260504100306 69 74 0.0 1.7 0.00 0.11 0.00 88 1015.5
20260504100206 69 70 0.0 1.7 0.00 0.11 0.00 88 1015.4
20260504100106 69 71 0.0 2.6 0.00 0.11 0.00 88 1015.3
20260504090106 69 82 1.7 5.2 0.00 0.11 0.00 87 1015.2
20260504082005 69 79 0.9 5.2 0.00 0.11 0.00 87 1014.6
20260504081904 69 77 0.9 5.2 0.00 0.11 0.00 87 1014.8
20260504081819 69 75 0.9 5.2 0.00 0.11 0.00 87 1014.7
20260504081806 69 74 0.9 5.2 0.00 0.11 0.00 87 1014.7
20260504081705 69 76 0.9 5.2 0.00 0.11 0.00 87 1014.8
20260504081521 69 77 0.9 5.2 0.00 0.11 0.00 87 1014.7
20260504081504 69 76 0.9 5.2 0.00 0.11 0.00 87 1014.7
20260504081405 69 81 0.9 5.2 0.00 0.11 0.00 87 1014.4
20260504081320 69 84 0.9 3.5 0.00 0.11 0.00 87 1014.3
20260504081205 69 86 0.9 3.5 0.00 0.11 0.00 87 1014.5
20260504081005 70 91 0.9 3.5 0.00 0.11 0.00 87 1014.6